Вернуться в каталог

YZ-2 R/B

АктивенMEO
NORAD 41840·ROCKET BODY·🇨🇳 China

Запущен Nov 3, 2016 с Wenchang Space Launch Site

Loading…

Ближайшие Пролёты (ближайшие 24 часа)

TLE

СвежийSource: Space-Track

Эпоха: Sep 14, 2026, 05:21 UTC

1 41840U 16065C   26257.22322103 -.00000214  00000-0  00000-0 0  9990
2 41840   9.6044  65.5299 0461599 234.8102 120.9073  0.93474181 33681

Отслеживайте YZ-2 R/B в реальном времени с AllMySat

Download on the App Store